When you browse on this site, cookies collect data to enhance your experience and personalize the content and advertising you see.
Visit our Privacy Policy to learn more. By continuing to use the site, you agree to this use of cookies and data.
  • In Hungary
  • List of Countries
  • For 7 days
  • Water Temperature
  • Satellite Maps
  • Weather Map
  • News
  • Weather Widgets
  • user-avatar
    Login

    Hourly Weather Zitlaltepec

    Today, 16 February, Saturday

    Time Temperature Precipitation Wind Pressure Humidity
    00:00 +12°C° 0 mm 0 mps 559 mmHg 68%
    01:00 +12°C° 0 mm 0 mps 559 mmHg 71%
    02:00 +12°C° 0 mm 0 mps 559 mmHg 73%
    03:00 +11°C° 0 mm 0 mps 558 mmHg 75%
    04:00 +11°C° 0 mm 0 mps 558 mmHg 77%
    05:00 +11°C° 0 mm 0 mps 558 mmHg 78%
    06:00 +12°C° 0 mm 0 mps 559 mmHg 71%
    07:00 +14°C° 0 mm 0 mps 560 mmHg 64%
    08:00 +16°C° 0 mm 1 mps 561 mmHg 56%
    09:00 +19°C° 0 mm 1 mps 562 mmHg 49%
    10:00 +21°C° 0 mm 1 mps 562 mmHg 42%
    11:00 +23°C° 0 mm 2 mps 563 mmHg 34%
    12:00 +24°C° 0 mm 2 mps 563 mmHg 33%
    13:00 +25°C° 0 mm 3 mps 563 mmHg 31%
    14:00 +26°C° 0 mm 4 mps 562 mmHg 29%
    15:00 +25°C° 0 mm 4 mps 562 mmHg 33%
    16:00 +23°C° 0 mm 5 mps 561 mmHg 36%
    17:00 +21°C° 0 mm 5 mps 560 mmHg 39%
    18:00 +20°C° 0 mm 4 mps 560 mmHg 43%
    19:00 +18°C° 0 mm 3 mps 560 mmHg 47%
    20:00 +17°C° 0 mm 2 mps 560 mmHg 51%
    21:00 +16°C° 0 mm 2 mps 559 mmHg 51%
    22:00 +15°C° 0 mm 1 mps 559 mmHg 50%
    23:00 +15°C° 0 mm 1 mps 559 mmHg 50%

    Tomorrow, 17 February, Sunday

    Time Temperature Precipitation Wind Pressure Humidity
    00:00 +14°C° 0 mm 1 mps 558 mmHg 51%
    01:00 +14°C° 0 mm 1 mps 558 mmHg 51%
    02:00 +13°C° 0 mm 1 mps 558 mmHg 51%
    03:00 +12°C° 0 mm 1 mps 557 mmHg 52%
    04:00 +12°C° 0 mm 1 mps 557 mmHg 54%
    05:00 +11°C° 0 mm 1 mps 557 mmHg 55%
    06:00 +13°C° 0 mm 1 mps 558 mmHg 51%
    07:00 +14°C° 0 mm 1 mps 559 mmHg 48%
    08:00 +16°C° 0 mm 1 mps 560 mmHg 45%
    09:00 +18°C° 0 mm 2 mps 561 mmHg 39%
    10:00 +20°C° 0 mm 2 mps 562 mmHg 34%
    11:00 +22°C° 0 mm 3 mps 563 mmHg 29%
    12:00 +24°C° 0 mm 3 mps 563 mmHg 28%
    13:00 +25°C° 0 mm 3 mps 563 mmHg 26%
    14:00 +26°C° 0 mm 4 mps 563 mmHg 24%
    15:00 +23°C° 0 mm 4 mps 562 mmHg 26%
    16:00 +22°C° 0 mm 4 mps 562 mmHg 28%
    17:00 +21°C° 0 mm 4 mps 561 mmHg 29%
    18:00 +20°C° 0 mm 3 mps 561 mmHg 33%
    19:00 +18°C° 0 mm 2 mps 561 mmHg 36%
    20:00 +16°C° 0 mm 1 mps 561 mmHg 40%
    21:00 +16°C° 0 mm 1 mps 561 mmHg 42%
    22:00 +15°C° 0 mm 1 mps 561 mmHg 45%
    23:00 +14°C° 0 mm 1 mps 560 mmHg 47%

    Day after tomorrow, 18 February, Monday

    Time Temperature Precipitation Wind Pressure Humidity
    00:00 +14°C° 0 mm 1 mps 560 mmHg 50%
    01:00 +13°C° 0 mm 1 mps 560 mmHg 53%
    02:00 +13°C° 0 mm 1 mps 559 mmHg 55%
    03:00 +12°C° 0 mm 1 mps 559 mmHg 57%
    04:00 +11°C° 0 mm 0 mps 559 mmHg 58%
    05:00 +11°C° 0 mm 0 mps 559 mmHg 59%
    06:00 +13°C° 0 mm 1 mps 560 mmHg 55%
    07:00 +15°C° 0 mm 1 mps 561 mmHg 51%
    08:00 +16°C° 0 mm 1 mps 563 mmHg 47%
    09:00 +18°C° 0 mm 2 mps 563 mmHg 41%
    10:00 +20°C° 0 mm 3 mps 564 mmHg 36%
    11:00 +22°C° 0 mm 4 mps 565 mmHg 30%
    12:00 +23°C° 0 mm 5 mps 564 mmHg 29%
    13:00 +23°C° 0 mm 5 mps 564 mmHg 28%
    14:00 +24°C° 0 mm 6 mps 563 mmHg 27%
    15:00 +22°C° 0 mm 6 mps 563 mmHg 29%
    16:00 +21°C° 0 mm 5 mps 562 mmHg 32%
    17:00 +20°C° 0 mm 5 mps 562 mmHg 35%
    18:00 +19°C° 0 mm 4 mps 561 mmHg 38%
    19:00 +17°C° 0 mm 3 mps 561 mmHg 42%
    20:00 +16°C° 0 mm 1 mps 561 mmHg 45%
    21:00 +15°C° 0.1 mm 1 mps 561 mmHg 48%
    22:00 +15°C° 0.1 mm 1 mps 561 mmHg 50%
    23:00 +14°C° 0.1 mm 1 mps 560 mmHg 53%

    19 February, Tuesday

    Time Temperature Precipitation Wind Pressure Humidity
    00:00 +13°C° 0 mm 1 mps 560 mmHg 53%
    01:00 +13°C° 0 mm 1 mps 559 mmHg 54%
    02:00 +12°C° 0 mm 1 mps 558 mmHg 54%
    03:00 +11°C° 0 mm 1 mps 558 mmHg 54%
    04:00 +11°C° 0 mm 1 mps 558 mmHg 53%
    05:00 +11°C° 0 mm 1 mps 558 mmHg 53%
    06:00 +12°C° 0 mm 1 mps 559 mmHg 50%
    07:00 +13°C° 0 mm 1 mps 560 mmHg 48%
    08:00 +15°C° 0 mm 1 mps 561 mmHg 46%
    09:00 +17°C° 0 mm 3 mps 562 mmHg 41%
    10:00 +19°C° 0 mm 4 mps 562 mmHg 36%
    11:00 +21°C° 0 mm 5 mps 563 mmHg 31%
    12:00 +21°C° 0 mm 6 mps 562 mmHg 28%
    13:00 +21°C° 0 mm 6 mps 562 mmHg 25%
    14:00 +22°C° 0 mm 7 mps 561 mmHg 22%
    15:00 +21°C° 0 mm 6 mps 560 mmHg 24%
    16:00 +19°C° 0 mm 6 mps 560 mmHg 26%
    17:00 +17°C° 0 mm 5 mps 559 mmHg 29%
    18:00 +17°C° 0 mm 4 mps 559 mmHg 32%
    19:00 +14°C° 0 mm 3 mps 559 mmHg 35%
    20:00 +14°C° 0 mm 1 mps 559 mmHg 38%
    21:00 +13°C° 0 mm 2 mps 558 mmHg 39%
    22:00 +13°C° 0 mm 2 mps 558 mmHg 41%
    23:00 +12°C° 0 mm 2 mps 558 mmHg 42%

    20 February, Wednesday

    Time Temperature Precipitation Wind Pressure Humidity
    00:00 +10°C° 0 mm 2 mps 557 mmHg 44%
    01:00 +11°C° 0 mm 1 mps 557 mmHg 46%
    02:00 +10°C° 0 mm 1 mps 556 mmHg 47%
    03:00 +10°C° 0 mm 1 mps 556 mmHg 48%
    04:00 +9°C° 0 mm 1 mps 555 mmHg 49%
    05:00 +9°C° 0 mm 1 mps 555 mmHg 49%
    06:00 +10°C° 0 mm 1 mps 556 mmHg 47%
    07:00 +12°C° 0 mm 1 mps 557 mmHg 44%
    08:00 +13°C° 0 mm 1 mps 559 mmHg 41%
    09:00 +15°C° 0 mm 2 mps 559 mmHg 37%
    10:00 +17°C° 0 mm 3 mps 560 mmHg 33%
    11:00 +19°C° 0 mm 4 mps 561 mmHg 29%
    12:00 +20°C° 0 mm 5 mps 560 mmHg 27%
    13:00 +20°C° 0 mm 6 mps 560 mmHg 25%
    14:00 +21°C° 0 mm 6 mps 560 mmHg 24%
    15:00 +20°C° 0 mm 6 mps 559 mmHg 25%
    16:00 +19°C° 0 mm 6 mps 559 mmHg 27%
    17:00 +17°C° 0 mm 6 mps 558 mmHg 29%
    18:00 +15°C° 0 mm 4 mps 558 mmHg 32%
    19:00 +14°C° 0 mm 3 mps 558 mmHg 35%
    20:00 +13°C° 0 mm 2 mps 558 mmHg 38%
    21:00 +12°C° 0 mm 2 mps 558 mmHg 39%
    22:00 +12°C° 0 mm 2 mps 557 mmHg 40%
    23:00 +10°C° 0 mm 2 mps 557 mmHg 41%

    21 February, Thursday

    Time Temperature Precipitation Wind Pressure Humidity
    00:00 +10°C° 0 mm 2 mps 557 mmHg 41%
    01:00 +9°C° 0 mm 2 mps 556 mmHg 41%
    02:00 +9°C° 0 mm 1 mps 556 mmHg 41%
    03:00 +9°C° 0 mm 1 mps 556 mmHg 42%
    04:00 +9°C° 0 mm 1 mps 556 mmHg 43%
    05:00 +8°C° 0 mm 1 mps 556 mmHg 44%
    06:00 +10°C° 0 mm 1 mps 557 mmHg 41%
    07:00 +11°C° 0 mm 1 mps 558 mmHg 39%
    08:00 +13°C° 0 mm 1 mps 559 mmHg 36%
    09:00 +15°C° 0 mm 2 mps 560 mmHg 31%
    10:00 +17°C° 0 mm 3 mps 561 mmHg 26%
    11:00 +19°C° 0 mm 4 mps 562 mmHg 22%
    12:00 +20°C° 0 mm 5 mps 561 mmHg 21%
    13:00 +21°C° 0 mm 6 mps 561 mmHg 20%
    14:00 +21°C° 0 mm 6 mps 561 mmHg 19%
    15:00 +20°C° 0 mm 6 mps 560 mmHg 21%
    16:00 +19°C° 0 mm 6 mps 560 mmHg 23%
    17:00 +17°C° 0 mm 6 mps 559 mmHg 25%
    18:00 +15°C° 0 mm 5 mps 559 mmHg 30%
    19:00 +14°C° 0 mm 3 mps 559 mmHg 34%
    20:00 +13°C° 0 mm 2 mps 559 mmHg 38%
    21:00 +13°C° 0 mm 1 mps 558 mmHg 41%
    22:00 +12°C° 0 mm 1 mps 558 mmHg 43%
    23:00 +11°C° 0 mm 1 mps 558 mmHg 45%
    Show more